This is the latest recevied weather packets stored in our database for station/object KA2FNK. If no packets are shown the sender has not sent any weather packets the latest 10 day(s).
| Time | Temp. | Humidity | Pressure | Rain* | Wind** | Luminosity | Snow |
|---|---|---|---|---|---|---|---|
| 1777921190 | 26.67° C | 39% | 1002.3 hPa | 0 mm | - | - | - |
| 1777920889 | 26.67° C | 42% | 1002.3 hPa | 0 mm | - | - | - |
| 1777920588 | 26.11° C | 40% | 1002.3 hPa | 0 mm | - | - | - |
| 1777920288 | 26.11° C | 42% | 1002.3 hPa | 0 mm | - | - | - |
| 1777919986 | 26.11° C | 42% | 1002.3 hPa | 0 mm | - | - | - |
| 1777919686 | 26.11° C | 39% | 1002.4 hPa | 0 mm | - | - | - |
| 1777919385 | 26.11° C | 42% | 1002.4 hPa | 0 mm | - | - | - |
| 1777919083 | 25.56° C | 42% | 1002.4 hPa | 0 mm | - | - | - |
| 1777918783 | 25.56° C | 42% | 1002.5 hPa | 0 mm | - | - | - |
| 1777918481 | 25.56° C | 41% | 1002.5 hPa | 0 mm | - | - | - |
| 1777918180 | 25.56° C | 41% | 1002.5 hPa | 0 mm | - | - | - |
| 1777917880 | 25.56° C | 43% | 1002.5 hPa | 0 mm | - | - | - |
| 1777917579 | 25.56° C | 41% | 1002.7 hPa | 0 mm | - | - | - |
| 1777917277 | 25.56° C | 43% | 1002.7 hPa | 0 mm | - | - | - |
| 1777916976 | 25.56° C | 43% | 1002.8 hPa | 0 mm | - | - | - |
| 1777916675 | 25° C | 43% | 1002.7 hPa | 0 mm | - | - | - |
| 1777916374 | 25.56° C | 43% | 1002.7 hPa | 0 mm | - | - | - |
| 1777916073 | 25.56° C | 40% | 1002.8 hPa | 0 mm | - | - | - |
| 1777915773 | 25° C | 44% | 1002.9 hPa | 0 mm | - | - | - |
| 1777915472 | 25° C | 44% | 1002.8 hPa | 0 mm | - | - | - |
| 1777915171 | 25° C | 45% | 1002.9 hPa | 0 mm | - | - | - |
| 1777914870 | 25° C | 43% | 1003 hPa | 0 mm | - | - | - |
| 1777914569 | 25° C | 41% | 1003 hPa | 0 mm | - | - | - |
| 1777914267 | 25° C | 43% | 1003 hPa | 0 mm | - | - | - |
| 1777913966 | 24.44° C | 43% | 1003 hPa | 0 mm | - | - | - |
* Rain latest hour (hover to see other rain measurements)
** Current wind speed in m/s (hover to see current wind gust speed)